This is the latest recevied weather packets stored in our database for station/object N0ZJT. If no packets are shown the sender has not sent any weather packets the latest 1 day(s).
| Time | Temp. | Humidity | Pressure | Rain* | Wind** | Luminosity | Snow |
|---|---|---|---|---|---|---|---|
| 1778073382 | 6.11° C | 52% | 977.6 hPa | 0 mm | - | - | - |
| 1778072542 | 5.56° C | 53% | 977.5 hPa | 0 mm | - | - | - |
| 1778071582 | 5.56° C | 54% | 977.5 hPa | 0 mm | - | - | - |
| 1778070742 | 5° C | 56% | 977.4 hPa | 0 mm | - | - | - |
| 1778069782 | 3.89° C | 57% | 977.1 hPa | 0 mm | - | - | - |
| 1778068942 | 3.89° C | 58% | 976.8 hPa | 0 mm | - | - | - |
| 1778067982 | 3.89° C | 57% | 976.4 hPa | 0 mm | - | - | - |
| 1778067142 | 3.89° C | 57% | 976.4 hPa | 0 mm | - | - | - |
| 1778066182 | 3.89° C | 57% | 976.4 hPa | 0 mm | - | - | - |
| 1778065342 | 3.89° C | 56% | 976.2 hPa | 0 mm | - | - | - |
| 1778064382 | 3.89° C | 55% | 976 hPa | 0 mm | - | - | - |
| 1778063542 | 3.89° C | 55% | 976 hPa | 0 mm | - | - | - |
| 1778062582 | 3.89° C | 54% | 975.8 hPa | 0 mm | - | - | - |
| 1778061742 | 4.44° C | 54% | 976 hPa | 0 mm | - | - | - |
| 1778060782 | 4.44° C | 53% | 976.1 hPa | 0 mm | - | - | - |
| 1778059942 | 4.44° C | 53% | 975.7 hPa | 0 mm | - | - | - |
| 1778058982 | 4.44° C | 52% | 975.6 hPa | 0 mm | - | - | - |
| 1778058142 | 5° C | 52% | 975.5 hPa | 0 mm | - | - | - |
| 1778057182 | 5° C | 51% | 975.4 hPa | 0 mm | - | - | - |
| 1778056342 | 5° C | 50% | 975.8 hPa | 0 mm | - | - | - |
| 1778055382 | 5.56° C | 50% | 975.3 hPa | 0 mm | - | - | - |
| 1778054542 | 5.56° C | 50% | 975.6 hPa | 0 mm | - | - | - |
| 1778053582 | 5.56° C | 49% | 975.6 hPa | 0 mm | - | - | - |
| 1778052742 | 6.11° C | 49% | 975.5 hPa | 0 mm | - | - | - |
| 1778051782 | 6.11° C | 48% | 975.3 hPa | 0 mm | - | - | - |
* Rain latest hour (hover to see other rain measurements)
** Current wind speed in m/s (hover to see current wind gust speed)